Tri-Cities, TN

2:09 PM EST on December 15, 2019 (GMT -0500)
Tri-Cities Regional Tennessee / Virginia

Weather History for KTRI - October, 2019

Change the Weather History Date:

Monday, October 7, 2019

  Actual Average Record
Temperature  
Mean Temperature 70 °F 59 °F  
Max Temperature 81 °F 72 °F 90 °F (2018)
Min Temperature 59 °F 46 °F 33 °F (1964)
Degree Days  
Heating Degree Days 0 7  
Month to date heating degree days 0 40  
Since 1 July heating degree days 0 93  
Cooling Degree Days 5 1  
Month to date cooling degree days 65 7  
Year to date cooling degree days 1450 975  
Growing Degree Days 20 (Base 50)    
Moisture  
Dew Point 61 °F    
Average Humidity 74    
Maximum Humidity 93    
Minimum Humidity 54    
Precipitation  
Precipitation 0.24 in 0.07 in 1.19 in (1976)
Month to date precipitation 0.69 0.48  
Year to date precipitation 42.30 32.92  
Snow  
Snow 0.00 in 0.00 in - ()
Month to date snowfall 0.0 0.0  
Since 1 July snowfall 0.0 0.0  
Since 1 September snowfall 0.0 0.0  
Snow Depth 0.00 in    
Sea Level Pressure  
Sea Level Pressure 30.06 in    
Wind  
Wind Speed 4 mph (NNW)    
Max Wind Speed 21 mph    
Max Gust Speed 28 mph    
Visibility 9 miles    
Events Rain    
T = Trace of Precipitation, MM = Missing Value Source: NWS Daily Summary

Daily Weather History Graph

Daily Weather History Graph

Search for Another Location

Airport or City:

Astronomy

Oct. 07, 2019 Rise Set
Actual Time 7:29 AM EDT 7:04 PM EDT
Civil Twilight 7:03 AM EDT 7:30 PM EDT
Nautical Twilight 6:34 AM EDT 8:00 PM EDT
Astronomical Twilight 6:04 AM EDT 8:30 PM EDT
Moon 4:14 PM EDT (10/7) 1:33 AM EDT (10/7)
Length of Visible Light 12h 26m
Length of Day
11h 35m
Waxing Gibbous, 69% of the Moon is Illuminated
Oct 7
Waxing Gibbous
Oct 13
Full
Oct 21
Last Quarter
Oct 27
New
Nov 4
First Quarter

Hourly Weather History & Observations

Time (EDT) Temp. Dew Point Humidity Pressure Visibility Wind Dir Wind Speed Gust Speed Precip Events Conditions
12:53 AM 66.0 °F 64.0 °F 93% 30.11 in 10.0 mi North 3.5 mph - N/A   Overcast
1:53 AM 66.0 °F 63.0 °F 90% 30.10 in 10.0 mi Calm Calm - N/A   Overcast
2:53 AM 64.0 °F 62.1 °F 93% 30.09 in 6.0 mi Calm Calm - N/A   Mostly Cloudy
3:53 AM 66.9 °F 62.1 °F 84% 30.07 in 10.0 mi ESE 4.6 mph - N/A   Overcast
4:53 AM 66.0 °F 61.0 °F 84% 30.07 in 10.0 mi Calm Calm - N/A   Overcast
5:53 AM 64.0 °F 61.0 °F 90% 30.07 in 10.0 mi Calm Calm - N/A   Scattered Clouds
6:53 AM 62.1 °F 60.1 °F 93% 30.07 in 8.0 mi Calm Calm - N/A   Scattered Clouds
7:53 AM 63.0 °F 61.0 °F 93% 30.06 in 9.0 mi Calm Calm - N/A   Mostly Cloudy
8:53 AM 66.9 °F 63.0 °F 87% 30.06 in 10.0 mi Calm Calm - N/A   Mostly Cloudy
9:53 AM 72.0 °F 63.0 °F 73% 30.05 in 10.0 mi SE 5.8 mph - N/A   Scattered Clouds
10:53 AM 75.9 °F 62.1 °F 62% 30.05 in 10.0 mi Variable 4.6 mph - N/A   Scattered Clouds
11:53 AM 77.0 °F 60.1 °F 56% 30.04 in 10.0 mi South 8.1 mph - N/A   Mostly Cloudy
12:53 PM 77.0 °F 60.1 °F 56% 30.02 in 10.0 mi SSE 9.2 mph - N/A   Overcast
1:53 PM 79.0 °F 60.1 °F 52% 29.99 in 10.0 mi WSW 6.9 mph - N/A   Overcast
2:53 PM 73.0 °F 63.0 °F 71% 29.99 in 10.0 mi NW 15.0 mph - N/A   Overcast
3:00 PM 73.0 °F 62.1 °F 68% 30.06 in 10.0 mi WNW 16.1 mph 23.0 mph N/A   Overcast
3:53 PM 66.9 °F 64.0 °F 90% 30.01 in 4.0 mi WNW 12.7 mph 19.6 mph 0.02 in Rain Rain
4:53 PM 66.0 °F 64.0 °F 93% 30.01 in 5.0 mi WSW 6.9 mph - 0.09 in Rain Light Rain
5:48 PM 66.2 °F 64.4 °F 94% 30.08 in 10.0 mi South 3.5 mph - 0.02 in   Overcast
5:50 PM 66.2 °F 64.4 °F 94% 30.08 in 10.0 mi Calm Calm - 0.02 in   Overcast
5:53 PM 66.9 °F 64.0 °F 90% 30.02 in 10.0 mi Calm Calm - 0.02 in   Overcast
6:51 PM 64.4 °F 60.8 °F 88% 30.09 in 6.0 mi NNE 3.5 mph - 0.05 in Rain Rain
6:53 PM 64.0 °F 61.0 °F 90% 30.04 in 6.0 mi North 4.6 mph - 0.06 in Rain Rain
7:12 PM 63.0 °F 61.0 °F 93% 30.10 in 3.0 mi NNE 3.5 mph - 0.03 in Rain Rain
7:53 PM 63.0 °F 59.0 °F 87% 30.06 in 10.0 mi NNE 4.6 mph - 0.04 in   Mostly Cloudy
8:53 PM 62.1 °F 57.9 °F 86% 30.07 in 10.0 mi Calm Calm - N/A   Overcast
9:53 PM 61.0 °F 57.9 °F 90% 30.08 in 10.0 mi NNW 4.6 mph - N/A   Mostly Cloudy
10:53 PM 61.0 °F 57.0 °F 87% 30.07 in 10.0 mi North 3.5 mph - N/A   Overcast
11:53 PM 60.1 °F 55.9 °F 86% 30.07 in 10.0 mi North 5.8 mph - N/A   Overcast